Orbital Elements at Epoch 2459200.5 (2020-Dec-17.0) TDB
Reference: JPL 19 (heliocentric ecliptic J2000)
Element | Value | Uncertainty (1-sigma) | Units |
e | .01552404800184326 | 3.7279e-08 | |
a | 3.107223649391966 | 2.4975e-08 | au |
q | 3.058986960306343 | 1.1172e-07 | au |
i | 1.255151832263964 | 4.9281e-06 | deg |
node | 164.2372050930743 | 0.00019552 | deg |
peri | 285.2429514257757 | 0.0002585 | deg |
M | 235.5730606917209 | 0.00016943 | deg |
tp | 2459891.963268936842 (2022-Nov-08.46326894) | 0.00094255 | TDB |
period | 2000.585871525173 5.48 | 2.412e-05 6.604e-08 | d yr |
n | .179947287004256 | 2.1696e-09 | deg/d |
Q | 3.15546033847759 | 2.5363e-08 | au |
|
| | Orbit Determination Parameters
Additional Information
|